Radiation Dose at Monitoring Post of Fukushima Daini Nuclear Power Station
Date,Time,MP-1(microSv/h),MP-2(microSv/h),MP-3(microSv/h),MP-4(microSv/h),MP-5(microSv/h),MP-6(microSv/h),MP-7(microSv/h),Wind Direction,Wind Velocity(m/s),Rain
2019/02/24,00:00,0.216,0.195,0.316,0.295,0.278,0.161,0.096,west-northwest,3.6,No
2019/02/24,00:10,0.216,0.196,0.318,0.295,0.278,0.159,0.096,west-northwest,4.5,No
2019/02/24,00:20,0.216,0.196,0.317,0.296,0.278,0.159,0.096,west-northwest,4.4,No
2019/02/24,00:30,0.216,0.195,0.316,0.297,0.277,0.159,0.096,west-northwest,4.7,No
2019/02/24,00:40,0.216,0.195,0.316,0.295,0.278,0.159,0.097,west-northwest,5.0,No
2019/02/24,00:50,0.215,0.196,0.317,0.295,0.277,0.161,0.096,west-northwest,5.1,No
2019/02/24,01:00,0.217,0.194,0.317,0.295,0.278,0.159,0.096,west-northwest,6.1,No
2019/02/24,01:10,0.217,0.195,0.318,0.296,0.277,0.160,0.097,west-northwest,7.1,No
2019/02/24,01:20,0.216,0.196,0.317,0.296,0.276,0.159,0.096,west-northwest,6.7,No
2019/02/24,01:30,0.216,0.195,0.317,0.295,0.277,0.158,0.096,west-northwest,5.7,No
2019/02/24,01:40,0.216,0.196,0.316,0.296,0.279,0.159,0.096,west-northwest,5.4,No
2019/02/24,01:50,0.217,0.197,0.317,0.296,0.277,0.159,0.097,northwest,5.2,No
2019/02/24,02:00,0.216,0.196,0.317,0.295,0.277,0.159,0.096,northwest,5.3,No
2019/02/24,02:10,0.215,0.195,0.317,0.294,0.277,0.160,0.097,northwest,5.7,No
2019/02/24,02:20,0.217,0.195,0.315,0.296,0.277,0.159,0.095,northwest,5.7,No
2019/02/24,02:30,0.216,0.195,0.317,0.296,0.278,0.159,0.097,northwest,5.8,No
2019/02/24,02:40,0.217,0.195,0.316,0.296,0.278,0.159,0.096,west-northwest,4.0,No
2019/02/24,02:50,0.218,0.196,0.317,0.295,0.278,0.160,0.096,west-northwest,3.4,No
2019/02/24,03:00,0.216,0.195,0.316,0.296,0.276,0.159,0.096,west-northwest,3.1,No
2019/02/24,03:10,0.216,0.195,0.317,0.294,0.277,0.159,0.096,northwest,2.1,No
2019/02/24,03:20,0.216,0.195,0.317,0.296,0.277,0.159,0.095,west-northwest,2.3,No
2019/02/24,03:30,0.216,0.195,0.318,0.296,0.278,0.159,0.097,west-northwest,2.5,No
2019/02/24,03:40,0.217,0.196,0.316,0.295,0.277,0.159,0.096,west-northwest,2.2,No
2019/02/24,03:50,0.217,0.196,0.317,0.296,0.278,0.159,0.097,west-northwest,2.0,No
2019/02/24,04:00,0.217,0.195,0.316,0.296,0.277,0.159,0.097,west-northwest,1.5,No
2019/02/24,04:10,0.216,0.195,0.316,0.295,0.278,0.160,0.096,west-northwest,1.5,No
2019/02/24,04:20,0.216,0.196,0.317,0.295,0.277,0.158,0.096,west-northwest,2.1,No
2019/02/24,04:30,0.216,0.194,0.318,0.295,0.277,0.160,0.097,west-northwest,2.0,No
2019/02/24,04:40,0.216,0.195,0.318,0.295,0.277,0.160,0.096,west-northwest,1.9,No
2019/02/24,04:50,0.215,0.195,0.316,0.296,0.277,0.159,0.096,west,1.8,No
2019/02/24,05:00,0.218,0.197,0.317,0.295,0.278,0.159,0.096,northwest,1.7,No
2019/02/24,05:10,0.216,0.195,0.317,0.295,0.277,0.159,0.096,northwest,0.9,No
2019/02/24,05:20,0.217,0.195,0.318,0.294,0.276,0.158,0.097,north,0.7,No
2019/02/24,05:30,0.217,0.195,0.318,0.295,0.276,0.160,0.096,north,1.0,No
2019/02/24,05:40,0.216,0.196,0.317,0.296,0.278,0.159,0.097,north-northeast,1.2,No
2019/02/24,05:50,0.216,0.197,0.317,0.294,0.277,0.159,0.096,north-northeast,1.3,No
2019/02/24,06:00,0.215,0.195,0.315,0.294,0.278,0.159,0.096,north-northwest,0.6,No
2019/02/24,06:10,0.216,0.196,0.316,0.296,0.276,0.158,0.096,-,CALM,No
2019/02/24,06:20,0.217,0.196,0.317,0.296,0.278,0.159,0.096,west-northwest,0.8,No
2019/02/24,06:30,0.217,0.196,0.318,0.295,0.276,0.158,0.096,north-northeast,1.4,No
2019/02/24,06:40,0.217,0.196,0.318,0.295,0.276,0.159,0.096,north-northwest,1.9,No
2019/02/24,06:50,0.216,0.197,0.317,0.295,0.276,0.158,0.095,north-northwest,2.3,No
2019/02/24,07:00,0.216,0.195,0.316,0.295,0.278,0.159,0.096,west-northwest,2.3,No
2019/02/24,07:10,0.216,0.194,0.317,0.294,0.278,0.160,0.096,northwest,1.4,No
2019/02/24,07:20,0.216,0.196,0.316,0.294,0.276,0.159,0.096,west-northwest,1.1,No
2019/02/24,07:30,0.216,0.194,0.316,0.295,0.275,0.159,0.096,-,CALM,No
2019/02/24,07:40,0.215,0.195,0.317,0.295,0.277,0.158,0.095,east-southeast,0.7,No
2019/02/24,07:50,0.216,0.195,0.317,0.295,0.279,0.158,0.096,east-southeast,0.7,No
2019/02/24,08:00,0.215,0.195,0.317,0.295,0.277,0.158,0.096,south-southeast,0.8,No
2019/02/24,08:10,0.218,0.196,0.316,0.294,0.277,0.160,0.096,south,1.1,No
2019/02/24,08:20,0.216,0.196,0.316,0.295,0.276,0.158,0.095,southwest,1.2,No
2019/02/24,08:30,0.216,0.195,0.316,0.294,0.278,0.159,0.095,southeast,1.7,No
2019/02/24,08:40,0.217,0.195,0.316,0.294,0.277,0.158,0.095,south-southeast,1.7,No
2019/02/24,08:50,0.216,0.196,0.316,0.296,0.278,0.159,0.094,southeast,2.5,No
2019/02/24,09:00,0.215,0.194,0.316,0.293,0.278,0.159,0.095,east-southeast,3.0,No
2019/02/24,09:10,0.217,0.195,0.315,0.294,0.277,0.160,0.096,southeast,2.7,No
2019/02/24,09:20,0.214,0.194,0.316,0.295,0.277,0.159,0.096,southeast,2.3,No
2019/02/24,09:30,0.216,0.195,0.315,0.295,0.279,0.157,0.096,southeast,3.2,No
2019/02/24,09:40,0.215,0.195,0.315,0.296,0.278,0.158,0.095,south-southeast,3.4,No
2019/02/24,09:50,0.214,0.194,0.316,0.295,0.277,0.158,0.096,southeast,3.7,No
2019/02/24,10:00,0.215,0.194,0.316,0.294,0.277,0.159,0.095,south-southeast,4.3,No
2019/02/24,10:10,0.214,0.194,0.315,0.296,0.277,0.158,0.096,southeast,4.5,No
2019/02/24,10:20,0.215,0.193,0.315,0.294,0.277,0.158,0.096,southeast,5.7,No
2019/02/24,10:30,0.214,0.194,0.317,0.295,0.276,0.159,0.096,southeast,5.0,No
2019/02/24,10:40,0.215,0.195,0.318,0.294,0.277,0.158,0.096,southeast,4.7,No
2019/02/24,10:50,0.215,0.194,0.315,0.295,0.278,0.160,0.096,southeast,4.7,No
2019/02/24,11:00,0.216,0.195,0.317,0.295,0.277,0.159,0.095,southeast,5.1,No
2019/02/24,11:10,0.214,0.195,0.318,0.294,0.280,0.158,0.096,southeast,5.2,No
2019/02/24,11:20,0.214,0.195,0.316,0.295,0.277,0.157,0.096,southeast,5.4,No
2019/02/24,11:30,0.216,0.194,0.316,0.294,0.278,0.158,0.096,southeast,4.7,No
2019/02/24,11:40,0.213,0.195,0.314,0.296,0.276,0.159,0.094,southeast,5.6,No
2019/02/24,11:50,0.216,0.196,0.316,0.293,0.279,0.158,0.096,southeast,6.7,No
2019/02/24,12:00,0.214,0.196,0.315,0.296,0.277,0.159,0.095,south-southeast,7.8,No
2019/02/24,12:10,0.215,0.195,0.315,0.295,0.279,0.157,0.096,south-southeast,8.1,No
2019/02/24,12:20,0.217,0.195,0.316,0.296,0.277,0.160,0.096,south-southeast,7.4,No
2019/02/24,12:30,0.214,0.194,0.314,0.294,0.278,0.159,0.096,south-southeast,8.5,No
2019/02/24,12:40,0.215,0.195,0.316,0.295,0.277,0.159,0.096,south-southeast,7.5,No
2019/02/24,12:50,0.214,0.195,0.314,0.295,0.278,0.159,0.096,south-southeast,8.4,No
2019/02/24,13:00,0.216,0.193,0.315,0.296,0.277,0.159,0.097,south-southeast,8.9,No
2019/02/24,13:10,0.216,0.195,0.315,0.293,0.278,0.160,0.095,south-southeast,8.4,No
2019/02/24,13:20,0.215,0.196,0.315,0.295,0.279,0.159,0.096,south-southeast,10.1,No
2019/02/24,13:30,0.216,0.196,0.314,0.295,0.279,0.158,0.096,south,9.3,No
2019/02/24,13:40,0.214,0.195,0.314,0.295,0.276,0.159,0.096,south,10.3,No
2019/02/24,13:50,0.216,0.196,0.315,0.295,0.278,0.159,0.096,south,11.7,No
2019/02/24,14:00,0.214,0.194,0.315,0.296,0.277,0.159,0.095,south,10.0,No
2019/02/24,14:10,0.215,0.196,0.315,0.295,0.278,0.159,0.095,south,11.5,No
2019/02/24,14:20,0.214,0.194,0.314,0.295,0.278,0.159,0.095,south,10.9,No
2019/02/24,14:30,0.216,0.195,0.316,0.296,0.279,0.159,0.095,south,9.5,No
2019/02/24,14:40,0.215,0.195,0.315,0.295,0.277,0.159,0.095,south,10.6,No
2019/02/24,14:50,0.216,0.195,0.316,0.295,0.278,0.159,0.095,south,10.6,No
2019/02/24,15:00,0.214,0.195,0.318,0.296,0.278,0.159,0.095,south,10.3,No
2019/02/24,15:10,0.217,0.194,0.316,0.297,0.278,0.159,0.095,south,11.7,No
2019/02/24,15:20,0.216,0.195,0.317,0.296,0.280,0.160,0.096,south,11.1,No
2019/02/24,15:30,0.215,0.195,0.316,0.296,0.278,0.160,0.096,south,10.0,No
2019/02/24,15:40,0.217,0.195,0.316,0.294,0.280,0.159,0.095,south,9.3,No
2019/02/24,15:50,0.215,0.196,0.317,0.296,0.279,0.159,0.095,south,9.0,No
2019/02/24,16:00,0.216,0.196,0.315,0.297,0.280,0.158,0.095,south,10.4,No
2019/02/24,16:10,0.217,0.195,0.315,0.295,0.279,0.158,0.096,south-southwest,9.0,No
2019/02/24,16:20,0.215,0.195,0.317,0.296,0.278,0.159,0.096,south-southwest,7.3,No
2019/02/24,16:30,0.216,0.195,0.316,0.296,0.280,0.158,0.096,south-southwest,7.4,No
2019/02/24,16:40,0.217,0.195,0.317,0.295,0.279,0.159,0.096,south-southwest,9.3,No
2019/02/24,16:50,0.215,0.196,0.317,0.296,0.277,0.159,0.095,south-southwest,9.5,No
2019/02/24,17:00,0.216,0.195,0.316,0.296,0.280,0.161,0.096,south-southwest,8.2,No
2019/02/24,17:10,0.215,0.195,0.316,0.296,0.280,0.160,0.095,south-southwest,8.9,No
2019/02/24,17:20,0.215,0.196,0.317,0.295,0.279,0.159,0.095,south-southwest,9.3,No
2019/02/24,17:30,0.216,0.194,0.316,0.297,0.280,0.158,0.096,south-southwest,8.5,No
2019/02/24,17:40,0.216,0.195,0.316,0.295,0.280,0.160,0.097,south-southwest,9.6,No
2019/02/24,17:50,0.216,0.196,0.317,0.296,0.279,0.160,0.096,south-southwest,9.5,No
2019/02/24,18:00,0.216,0.196,0.316,0.296,0.279,0.160,0.095,south-southwest,9.2,No
2019/02/24,18:10,0.216,0.194,0.315,0.296,0.280,0.160,0.096,south-southwest,8.2,No
2019/02/24,18:20,0.216,0.196,0.317,0.296,0.279,0.159,0.097,southwest,8.6,No
2019/02/24,18:30,0.216,0.196,0.318,0.296,0.279,0.159,0.096,southwest,7.6,No
2019/02/24,18:40,0.217,0.195,0.315,0.297,0.279,0.159,0.095,southwest,7.3,No
2019/02/24,18:50,0.216,0.195,0.317,0.296,0.277,0.159,0.096,southwest,7.1,No
2019/02/24,19:00,0.216,0.196,0.317,0.295,0.278,0.160,0.096,southwest,7.5,No
2019/02/24,19:10,0.216,0.196,0.317,0.297,0.279,0.160,0.096,southwest,7.8,No
2019/02/24,19:20,0.218,0.196,0.317,0.298,0.278,0.159,0.095,west-southwest,8.1,No
2019/02/24,19:30,0.216,0.195,0.317,0.296,0.278,0.159,0.097,southwest,6.2,No
2019/02/24,19:40,0.216,0.196,0.317,0.297,0.279,0.159,0.095,southwest,6.8,No
2019/02/24,19:50,0.217,0.196,0.316,0.296,0.279,0.159,0.096,southwest,5.5,No
2019/02/24,20:00,0.216,0.196,0.317,0.296,0.278,0.160,0.097,south,3.3,No
2019/02/24,20:10,0.215,0.196,0.316,0.297,0.278,0.160,0.096,south-southwest,5.7,No
2019/02/24,20:20,0.215,0.196,0.316,0.295,0.278,0.160,0.096,southwest,6.6,No
2019/02/24,20:30,0.217,0.195,0.315,0.297,0.277,0.160,0.096,southwest,7.7,No
2019/02/24,20:40,0.217,0.196,0.317,0.297,0.279,0.160,0.097,south-southwest,7.3,No
2019/02/24,20:50,0.217,0.195,0.317,0.297,0.278,0.159,0.096,south-southwest,7.3,No
2019/02/24,21:00,0.216,0.196,0.317,0.296,0.278,0.160,0.096,south-southwest,5.3,No
2019/02/24,21:10,0.218,0.196,0.317,0.297,0.278,0.160,0.096,south-southwest,4.0,No
2019/02/24,21:20,0.216,0.195,0.317,0.295,0.277,0.160,0.096,south-southwest,4.4,No
2019/02/24,21:30,0.215,0.195,0.316,0.296,0.279,0.159,0.096,south-southwest,4.8,No
2019/02/24,21:40,0.216,0.195,0.315,0.296,0.279,0.159,0.096,south-southwest,5.0,No
2019/02/24,21:50,0.216,0.195,0.317,0.297,0.278,0.160,0.096,southwest,4.5,No
2019/02/24,22:00,0.216,0.196,0.316,0.295,0.278,0.160,0.096,southwest,4.1,No
2019/02/24,22:10,0.216,0.196,0.316,0.296,0.279,0.160,0.096,south-southwest,4.3,No
2019/02/24,22:20,0.217,0.196,0.316,0.296,0.279,0.159,0.097,southwest,4.8,No
2019/02/24,22:30,0.217,0.196,0.317,0.298,0.278,0.159,0.096,southwest,5.3,No
2019/02/24,22:40,0.216,0.195,0.316,0.297,0.278,0.160,0.097,southwest,4.7,No
2019/02/24,22:50,0.216,0.196,0.316,0.295,0.278,0.159,0.097,southwest,5.4,No
2019/02/24,23:00,0.217,0.195,0.318,0.296,0.278,0.159,0.096,south-southwest,5.3,No
2019/02/24,23:10,0.216,0.196,0.319,0.297,0.277,0.160,0.096,south-southwest,5.1,No
2019/02/24,23:20,0.216,0.195,0.316,0.297,0.279,0.160,0.096,southwest,5.5,No
2019/02/24,23:30,0.216,0.197,0.316,0.295,0.278,0.160,0.096,southwest,4.8,No
2019/02/24,23:40,0.216,0.197,0.317,0.294,0.278,0.159,0.096,southwest,5.4,No
2019/02/24,23:50,0.217,0.194,0.317,0.296,0.278,0.159,0.096,southwest,6.4,No
